Regional Weather Roundup
Issued by NWS

Home | Current Version | Previous Version | Graphics & Text | Print | Product List | Glossary On
Versions: 1 2 3 4 5 6 7 8 9 10 11 12 13 14 15 16 17 18 19 20 21 22 23 24 25 26 27 28 29 30 31 32 33 34 35 36 37 38 39 40 41 42 43 44 45 46 47 48 49 50
000
ASUS43 KMPX 111001
RWRMN
WEATHER ROUNDUP FOR MINNESOTA
NATIONAL WEATHER SERVICE TWIN CITIES/CHANHASSEN MN
400 AM CST SUN DEC 11 2016


NOTE: "FAIR" INDICATES FEW OR NO CLOUDS BELOW 12,000 FEET WITH NO
SIGNIFICANT WEATHER AND/OR OBSTRUCTIONS TO VISIBILITY. N/A MEANS
CURRENT SKY AND/OR WEATHER CONDITIONS ARE NOT AVAILABLE.

MNZ060>063-068>070-111100-
   Twin Cities Metro

CITY           SKY/WX    TMP DP  RH WIND       PRES   REMARKS
ST PAUL        LGT SNOW  16  14  92 E7        30.06F VSB 3/4 WCI   6
$$
MNZ001>005-007-008-013>017-022>024-027-028-111100-
   Northwest Minnesota

CITY           SKY/WX    TMP DP  RH WIND       PRES   REMARKS
CROOKSTON      CLOUDY     3  -2  78 E13G18    30.10F WCI -14
$$
MNZ006-009>011-018-025>026-111100-
   North Central Minnesota

CITY           SKY/WX    TMP DP  RH WIND       PRES   REMARKS
LONGVILLE      CLOUDY     1  -2  85 CALM      30.06F
$$
MNZ012-019>021-037-111100-
   Northeast Minnesota

CITY           SKY/WX    TMP DP  RH WIND       PRES   REMARKS
$$
MNZ029>031-032-039>041-046>048-054>057-064-111100-
   West Central Minnesota

CITY           SKY/WX    TMP DP  RH WIND       PRES   REMARKS
WHEATON        LGT SNOW  14  12  92 E9        30.00F WCI   2
ELBOW LAKE     LGT SNOW  10   7  87 NE13      29.98F WCI  -5
APPLETON       LGT SNOW  16  10  79 E15       29.94S WCI   1
WILLMAR        LGT SNOW  14  10  85 E15       29.95F WCI  -1
$$
MNZ033>034-036-042>043-049>051-058-059-111100-
   Central Minnesota

CITY           SKY/WX    TMP DP  RH WIND       PRES   REMARKS
$$
MNZ037-044-045-052-053-111100-
   East Central Minnesota

CITY           SKY/WX    TMP DP  RH WIND       PRES   REMARKS
MORA           LGT SNOW  12   9  85 E6        30.08F WCI   3
CAMBRIDGE      LGT SNOW  16   7  67 NE6       30.03F WCI   7
RUSH CITY      CLOUDY    12   9  85 E8        30.06F WCI   1
CLOQUET        CLOUDY     7   1  78 E5        30.08  WCI  -2
$$
MNZ071>073-080-081-089-090-097-098-111100-
   Southwest Minnesota

CITY           SKY/WX    TMP DP  RH WIND       PRES   REMARKS
MARSHALL       LGT SNOW  14  12  92 E13       29.88F FOG     WCI   0
JACKSON        MIX PCPN  19  18  93 SE13      29.85F WCI   7
$$
MNZ065>067-074>077-082>085-091>093-111100-
   South Central Minnesota

CITY           SKY/WX    TMP DP  RH WIND       PRES   REMARKS
ST JAMES       LGT SNOW  19  18  93 E8        29.92F WCI   9
GLENCOE        LGT SNOW  16  15  95 NE9       29.98F VSB 3/4 WCI   4
OWATONNA       LGT SNOW  18  14  86 E10       29.95F WCI   6
$$
MNZ078>079-086>088-094>096-111100-
   Southeast Minnesota

CITY           SKY/WX    TMP DP  RH WIND       PRES   REMARKS
RED WING       LGT SNOW  18  12  79 E7        30.04F WCI   8
AUSTIN         LGT SNOW  19  18  93 SE12      29.94F WCI   7
$$
ABBREVIATIONS USED IN REMARKS
   TC - TEMPERATURES IN CELSIUS
  WCI - WIND CHILL INDEX
   HX - HEAT INDEX
  VSB - VISIBILITY
$$




USA.gov is the U.S. government's official web portal to all federal, state and local government web resources and services.